2023/05/03 00:00:00,15.0, 8.3
2023/05/03 00:10:00,15.2, 8.1
2023/05/03 00:20:00,14.3, 8.2
2023/05/03 00:30:00,15.0, 7.9
2023/05/03 00:40:00,15.2, 8.1
2023/05/03 00:50:00,14.3, 8.1
2023/05/03 01:00:00,15.5, 8.0
2023/05/03 01:10:00,15.8, 7.8
2023/05/03 01:20:00,15.4, 7.7
2023/05/03 01:30:00,15.4, 7.7
2023/05/03 01:40:00,15.1, 7.9
2023/05/03 01:50:00,15.0, 7.8
2023/05/03 02:00:00,15.0, 7.7
2023/05/03 02:10:00,15.0, 7.5
2023/05/03 02:20:00,15.2, 7.4
2023/05/03 02:30:00,15.5, 7.6
2023/05/03 02:40:00,15.3, 7.4
2023/05/03 02:50:00,14.4, 7.9
2023/05/03 03:00:00,15.7, 7.7
2023/05/03 03:10:00,15.8, 7.3
2023/05/03 03:20:00,16.0, 7.3
2023/05/03 03:30:00,15.6, 7.3
2023/05/03 03:40:00,15.7, 7.1
2023/05/03 03:50:00,16.1, 7.0
2023/05/03 04:00:00,16.1, 6.9
2023/05/03 04:10:00,16.1, 6.8
2023/05/03 04:20:00,16.0, 6.7
2023/05/03 04:30:00,15.7, 6.6
2023/05/03 04:40:00,15.7, 6.6
2023/05/03 04:50:00,15.9, 6.4
2023/05/03 05:00:00,16.2, 6.2
2023/05/03 05:10:00,16.1, 6.3
2023/05/03 05:20:00,15.9, 6.1
2023/05/03 05:30:00,16.0, 6.0
2023/05/03 05:40:00,16.1, 6.3
2023/05/03 05:50:00,16.0, 6.3
2023/05/03 06:00:00,16.1, 6.5
2023/05/03 06:10:00,16.0, 6.4
2023/05/03 06:20:00,16.1, 7.0
2023/05/03 06:30:00,16.3, 7.1
2023/05/03 06:40:00,16.2, 7.3
2023/05/03 06:50:00,15.6, 7.4
2023/05/03 07:00:00,15.6, 7.9
2023/05/03 07:10:00,15.5, 9.7
2023/05/03 07:20:00,15.2,11.1
2023/05/03 07:30:00,14.9,11.4
2023/05/03 07:40:00,14.7,12.6
2023/05/03 07:50:00,14.0,13.3
2023/05/03 08:00:00, 8.9,14.5
2023/05/03 08:10:00,10.5,14.6
2023/05/03 08:20:00,---,14.8
2023/05/03 08:30:00, 7.3,15.9
2023/05/03 08:40:00,---,17.8
2023/05/03 08:50:00,---,18.2
2023/05/03 09:00:00,---,18.7
2023/05/03 09:10:00, 5.9,19.3
2023/05/03 09:20:00, 3.9,20.4
2023/05/03 09:30:00, 2.8,20.6
2023/05/03 09:40:00, 1.9,21.6
2023/05/03 09:50:00, 2.0,21.2
2023/05/03 10:00:00, 1.4,23.0
2023/05/03 10:10:00, 1.0,22.3
2023/05/03 10:20:00, 1.1,21.7
2023/05/03 10:30:00, 1.2,22.5
2023/05/03 10:40:00, 0.8,23.1
2023/05/03 10:50:00, 0.5,23.0
2023/05/03 11:00:00, 0.6,23.5
2023/05/03 11:10:00, 0.2,24.0
2023/05/03 11:20:00, 0.5,23.3
2023/05/03 11:30:00, 0.8,23.9
2023/05/03 11:40:00, 0.8,24.5
2023/05/03 11:50:00, 0.6,24.7
2023/05/03 12:00:00, 0.9,24.1
2023/05/03 12:10:00, 1.5,23.2
2023/05/03 12:20:00, 2.1,24.3
2023/05/03 12:30:00, 2.4,25.8
2023/05/03 12:40:00, 1.3,24.6
2023/05/03 12:50:00, 1.3,25.7
2023/05/03 13:00:00, 0.6,25.4
2023/05/03 13:10:00, 1.0,25.0
2023/05/03 13:20:00, 1.2,26.1
2023/05/03 13:30:00, 1.3,25.6
2023/05/03 13:40:00, 1.0,25.3
2023/05/03 13:50:00, 0.6,25.5
2023/05/03 14:00:00, 0.5,25.6
2023/05/03 14:10:00, 0.5,26.1
2023/05/03 14:20:00, 0.4,26.9
2023/05/03 14:30:00, 0.3,25.3
2023/05/03 14:40:00, 0.9,26.9
2023/05/03 14:50:00, 1.2,26.1
2023/05/03 15:00:00, 1.8,25.5
2023/05/03 15:10:00, 3.4,25.9
2023/05/03 15:20:00, 1.6,23.9
2023/05/03 15:30:00, 0.7,23.0
2023/05/03 15:40:00, 1.1,23.1
2023/05/03 15:50:00, 1.1,23.0
2023/05/03 16:00:00, 0.6,22.7
2023/05/03 16:10:00, 1.6,23.3
2023/05/03 16:20:00, 0.8,22.3
2023/05/03 16:30:00, 0.2,21.4
2023/05/03 16:40:00, 0.2,20.6
2023/05/03 16:50:00, 0.3,20.4
2023/05/03 17:00:00, 0.4,21.1
2023/05/03 17:10:00, 1.0,21.0
2023/05/03 17:20:00, 0.8,20.9
2023/05/03 17:30:00, 0.9,20.8
2023/05/03 17:40:00, 0.4,19.7
2023/05/03 17:50:00, 0.2,18.8
2023/05/03 18:00:00, 0.2,18.4
2023/05/03 18:10:00, 0.4,18.0
2023/05/03 18:20:00, 0.5,17.8
2023/05/03 18:30:00, 0.4,17.2
2023/05/03 18:40:00, 0.4,16.9
2023/05/03 18:50:00, 0.4,16.7
2023/05/03 19:00:00, 0.4,16.5
2023/05/03 19:10:00, 0.4,16.0
2023/05/03 19:20:00, 0.4,15.6
2023/05/03 19:30:00, 0.4,15.6
2023/05/03 19:40:00, 0.4,15.2
2023/05/03 19:50:00, 0.4,14.9
2023/05/03 20:00:00, 0.5,14.6
2023/05/03 20:10:00, 0.6,14.4
2023/05/03 20:20:00, 0.7,14.2
2023/05/03 20:30:00, 0.9,14.1
2023/05/03 20:40:00, 0.9,14.1
2023/05/03 20:50:00, 0.9,13.8
2023/05/03 21:00:00, 0.8,13.7
2023/05/03 21:10:00, 0.7,13.4
2023/05/03 21:20:00, 0.9,13.2
2023/05/03 21:30:00, 0.9,13.0
2023/05/03 21:40:00, 1.3,13.1
2023/05/03 21:50:00, 2.2,13.2
2023/05/03 22:00:00, 2.0,12.9
2023/05/03 22:10:00, 5.3,13.1
2023/05/03 22:20:00, 5.3,13.1
2023/05/03 22:30:00, 3.5,13.0
2023/05/03 22:40:00, 2.7,12.8
2023/05/03 22:50:00, 2.6,12.6
2023/05/03 23:00:00, 4.3,12.7
2023/05/03 23:10:00, 3.7,12.8
2023/05/03 23:20:00, 8.0,12.1
2023/05/03 23:30:00,13.4,12.5
2023/05/03 23:40:00,12.0,12.3
2023/05/03 23:50:00,11.3,12.4
